AAUSAT 4 (41460 NORAD) Tracking and Keplerian Element Data

This shows tracking and keplerian element data for the satellite.

Feedback or suggestion? Click here.




ElementValue
Catalog41460
NameAAUSAT 4
Epoch Orbit36175
Epoch Day324.97603976
Epoch Year2022
RAAN150.1549
Inclination98.1803
Eccentricity0.0109517
Argument of Perigee66.8342
Mean Anonmoly294.4366
Mean Motion15.2666125
Decay Rate0.00021256
L11 41460U 16025E 22324.97603976 .00021256 00000+0 68112-3 0 9995
L22 41460 98.1803 150.1549 0109517 66.8342 294.4366 15.26661250361753



Live tracking and technical data element details for AAUSAT 4 (NORAD 41460). AAUSAT 4 can be tracked NOW for your location showing map with azimuth and elevation plus other details from your city location.







IsCatalogInMostPopularTable: catalog: 41460, numindb: 437
Update: records affected: 1



GetName: 41460 AAUSAT 4

Hit Count: updated at: Mon, 28 Nov 2022 05:25:10 GMT